Location: Unspecified
(48.7170°N, 0.0000°E)
Time: 21:45:28
(UTC+00:00)

ISS - Pass Details

Date: 26 May 2019
Orbit: 408 x 418 km, 51.6° (Epoch: 19 June)

Event Time Altitude Azimuth Distance (km) Brightness Sun altitude
Rises 22:07:04 0° 289° (WNW) 2,360 0.8 -15.9°
Reaches altitude 10° 22:09:10 10° 291° (WNW) 1,497 -0.3 -16.0°
Maximum altitude 22:12:31 71° 16° (NNE) 445 -3.6 -16.3°
Enters shadow 22:14:19 25° 97° (E) 887 -2.4 -16.4°
